Location: River House Observatory
(37.8577°N, 76.3548°W)
Time: 01:12:20
(UTC-05:00)

Daily predictions for brighter satellites

Satellite Brightness Start Highest point End
(mag) Time Altitude Azimuth Time Altitude Azimuth Time Altitude Azimuth
Lacrosse 5 4.4 03:32:45 17° E 03:32:45 17° E 03:34:47 10° ENE
Cosmos 2369 Rocket 2.8 04:12:46 50° NNE 04:12:46 50° NNE 04:16:53 10° NNE
ADEOS II 3.2 04:16:24 10° N 04:19:22 35° N 04:19:22 35° N
Cosmos 1371 Rocket 4.5 04:32:01 49° N 04:32:01 49° N 04:35:52 10° NNE
ATLAS CENTAUR R/B 3.6 04:35:03 44° NW 04:37:27 85° SW 04:54:29 10° SE
Nadezhda 2 Rocket 4.5 04:40:06 10° N 04:46:13 79° E 04:52:20 10° S
USA 234 3.6 04:43:44 10° NE 04:49:54 47° NW 04:51:19 41° WNW
Cosmos 2263 4.2 04:51:26 55° W 04:51:50 57° WNW 04:57:22 10° NNE
Cosmos 2266 Rocket 3.9 04:47:08 10° NNW 04:53:06 55° W 04:58:59 10° SSW
COSMO-SKYMED 1 4.0 04:51:07 10° SE 04:55:08 39° ENE 04:59:11 10° N
CZ-4B R/B 4.2 04:53:02 10° N 04:56:42 30° NW 04:56:42 30° NW
ATLAS 5 CENTAUR R/B 1.8 04:58:27 55° WNW 04:58:46 57° NW 05:03:48 10° NNE
Cosmos 1943 Rocket 2.1 05:03:56 34° SW 05:06:13 62° WNW 05:11:43 10° NNE
Cosmos 407 Rocket 3.5 05:01:20 10° NNW 05:06:44 88° WSW 05:12:03 10° SSE
SJ-6F 4.3 05:02:37 10° N 05:06:48 85° W 05:10:54 10° SSW
Cosmos 676 Rocket 4.4 05:02:39 10° NNW 05:07:56 65° ENE 05:13:12 10° SSE
Cosmos 972 Rocket 4.4 05:09:26 37° WNW 05:09:26 37° WNW 05:14:21 10° N
Meteor 1-26 Rocket 4.1 05:06:33 10° S 05:12:17 83° W 05:17:57 10° N
Lacrosse 5 1.8 05:12:00 37° WSW 05:13:52 64° NW 05:18:55 10° NE
Meteor 2-10 Rocket 3.3 05:09:11 10° S 05:14:12 82° W 05:19:15 10° N
CZ-4C R/B 2.4 05:11:57 10° SSW 05:17:03 67° ESE 05:22:48 10° NE
Sich 1 Rocket 3.6 05:13:56 10° NNW 05:18:22 55° W 05:22:44 10° S
Tiangong 1 1.1 05:19:06 53° S 05:19:27 59° SSE 05:22:22 10° ENE
Okean-O 3.2 05:19:57 10° N 05:24:00 35° WNW 05:25:07 30° WSW
Cosmos 1908 Rocket 3.9 05:26:12 10° NNW 05:30:25 41° W 05:34:37 10° SSW
Cosmos 1190 Rocket 4.3 05:26:34 10° NNW 05:31:31 43° WSW 05:36:28 10° S
Okean 1-7 2.9 05:27:38 10° SSW 05:31:54 71° W 05:36:10 10° N
Meteor 1-31 Rocket 3.9 05:28:42 10° NNW 05:31:27 25° WNW 05:31:27 25° WNW
Cosmos 1140 Rocket 3.9 05:28:11 10° NNW 05:33:24 67° ENE 05:38:35 10° SSE
Cosmos 1782 Rocket 3.5 05:31:18 10° NNW 05:35:44 65° W 05:40:06 10° S
IDEFIX/ARIANE 42P 4.2 05:37:17 10° NNE 05:42:07 37° E 05:46:54 10° SSE
SKYMED 2 3.6 05:38:53 10° S 05:43:08 57° W 05:47:25 10° NNW
Cosmos 614 Rocket 4.4 05:41:59 10° NNW 05:47:04 66° ENE 05:52:09 10° SSE
Cosmos 2219 3.6 05:43:17 10° NNW 05:48:57 69° ENE 05:54:33 10° SSE
Okean 2 Rocket 3.1 05:48:14 10° NNW 05:52:33 57° W 05:56:50 10° S
PAYLOAD A 4.2 05:48:24 10° NNE 05:53:07 69° ESE 05:57:55 10° S
Cosmos 2369 Rocket 3.9 05:54:36 12° WNW 05:56:01 13° NW 05:58:38 10° NNW
S3M 4.1 05:51:10 10° SSW 05:57:22 55° W 06:03:34 10° N
Cosmos 2227 Rocket 4.3 05:53:49 10° N 05:58:33 26° ENE 06:03:15 10° ESE
Cosmos 1954 Rocket 4.2 05:54:31 10° NNW 05:59:40 52° WSW 06:04:48 10° S
Cosmos 1674 Rocket 4.4 05:57:57 10° S 06:02:12 55° E 06:06:32 10° NNE
Cosmos 1420 Rocket 4.1 05:58:47 10° SSW 06:03:50 54° WNW 06:08:55 10° N
Ariane Rocket 3.0 05:59:03 10° N 06:04:07 67° WNW 06:09:07 10° SSW
Cosmos 1553 Rocket 4.3 06:00:47 10° SSW 06:06:36 43° WNW 06:12:32 10° N
SL-12 R/B (Aux Motor) 4.0 06:04:36 10° NW 06:07:35 61° NNE 06:09:32 10° ESE
CZ-2C R/B 2.9 06:04:05 10° NNE 06:08:56 67° ESE 06:13:56 10° S
Lacrosse 5 rocket 3.8 06:09:57 10° NNE 06:10:53 11° NNE 06:11:47 10° NE
Cosmos 2151 Rocket 3.6 06:06:42 10° N 06:11:14 80° W 06:15:42 10° S
Cosmos 1656 Rocket 4.3 06:11:55 10° SW 06:17:06 35° WNW 06:22:18 10° N
Meteor 1-27 Rocket 4.1 06:11:49 10° S 06:17:31 78° E 06:23:23 10° NNE
Cosmos 1607 4.1 06:12:25 10° SSW 06:18:31 78° ESE 06:24:41 10° NNE
SeaSat 1 3.9 06:14:05 10° NE 06:18:47 43° ESE 06:23:26 10° S
